• In Hungary
  • List of Countries
  • For 7 days
  • Water Temperature
  • Satellite Maps
  • Weather Map
  • News
  • Weather Widgets
  • user-avatar
    Login

    Hourly Weather Shelepulevo

    Today, 19 August, Sunday

    Time Temperature Precipitation Wind Pressure Humidity
    00:00 +14°C° 0 mm 2 mps 752 mmHg 83%
    01:00 +13°C° 0 mm 2 mps 752 mmHg 83%
    02:00 +13°C° 0 mm 2 mps 752 mmHg 85%
    03:00 +13°C° 0 mm 2 mps 751 mmHg 84%
    04:00 +13°C° 0 mm 2 mps 751 mmHg 84%
    05:00 +12°C° 0 mm 3 mps 751 mmHg 84%
    06:00 +14°C° 0 mm 3 mps 750 mmHg 79%
    07:00 +18°C° 0 mm 3 mps 750 mmHg 74%
    08:00 +20°C° 0 mm 3 mps 750 mmHg 68%
    09:00 +21°C° 0 mm 4 mps 750 mmHg 63%
    10:00 +23°C° 0 mm 4 mps 749 mmHg 59%
    11:00 +26°C° 0 mm 5 mps 749 mmHg 54%
    12:00 +26°C° 0.1 mm 5 mps 748 mmHg 55%
    13:00 +26°C° 0.1 mm 5 mps 748 mmHg 56%
    14:00 +26°C° 0.1 mm 5 mps 747 mmHg 57%
    15:00 +25°C° 0.5 mm 5 mps 747 mmHg 66%
    16:00 +23°C° 0.5 mm 4 mps 746 mmHg 74%
    17:00 +22°C° 0.5 mm 4 mps 746 mmHg 83%
    18:00 +21°C° 0.4 mm 4 mps 746 mmHg 87%
    19:00 +20°C° 0.4 mm 3 mps 746 mmHg 91%
    20:00 +19°C° 0.4 mm 3 mps 746 mmHg 94%
    21:00 +18°C° 0 mm 3 mps 746 mmHg 95%
    22:00 +17°C° 0 mm 2 mps 746 mmHg 96%
    23:00 +17°C° 0 mm 2 mps 746 mmHg 96%

    Tomorrow, 20 August, Monday

    Time Temperature Precipitation Wind Pressure Humidity
    00:00 +16°C° 0 mm 2 mps 746 mmHg 96%
    01:00 +16°C° 0 mm 2 mps 746 mmHg 95%
    02:00 +16°C° 0 mm 2 mps 746 mmHg 95%
    03:00 +15°C° 0 mm 2 mps 746 mmHg 95%
    04:00 +15°C° 0 mm 2 mps 746 mmHg 95%
    05:00 +15°C° 0 mm 2 mps 746 mmHg 95%
    06:00 +16°C° 0 mm 3 mps 746 mmHg 93%
    07:00 +17°C° 0 mm 3 mps 746 mmHg 90%
    08:00 +18°C° 0 mm 3 mps 746 mmHg 87%
    09:00 +19°C° 0.1 mm 3 mps 746 mmHg 82%
    10:00 +20°C° 0.1 mm 4 mps 746 mmHg 77%
    11:00 +20°C° 0.1 mm 4 mps 746 mmHg 72%
    12:00 +21°C° 0 mm 4 mps 746 mmHg 70%
    13:00 +21°C° 0 mm 4 mps 745 mmHg 68%
    14:00 +21°C° 0 mm 4 mps 745 mmHg 66%
    15:00 +21°C° 0.1 mm 3 mps 745 mmHg 70%
    16:00 +21°C° 0.1 mm 3 mps 744 mmHg 74%
    17:00 +20°C° 0.1 mm 3 mps 744 mmHg 77%
    18:00 +19°C° 0.1 mm 3 mps 744 mmHg 83%
    19:00 +18°C° 0.1 mm 3 mps 743 mmHg 89%
    20:00 +18°C° 0.1 mm 3 mps 743 mmHg 95%
    21:00 +17°C° 0 mm 3 mps 742 mmHg 95%
    22:00 +17°C° 0 mm 3 mps 742 mmHg 95%
    23:00 +17°C° 0 mm 3 mps 741 mmHg 95%

    Day after tomorrow, 21 August, Tuesday

    Time Temperature Precipitation Wind Pressure Humidity
    00:00 +17°C° 0.1 mm 4 mps 741 mmHg 95%
    01:00 +17°C° 0.1 mm 4 mps 740 mmHg 94%
    02:00 +16°C° 0.1 mm 5 mps 739 mmHg 94%
    03:00 +16°C° 0.1 mm 5 mps 738 mmHg 94%
    04:00 +17°C° 0.1 mm 5 mps 738 mmHg 94%
    05:00 +17°C° 0.1 mm 6 mps 737 mmHg 93%
    06:00 +17°C° 0.6 mm 6 mps 736 mmHg 92%
    07:00 +17°C° 0.6 mm 6 mps 736 mmHg 91%
    08:00 +17°C° 0.6 mm 6 mps 735 mmHg 91%
    09:00 +18°C° 0.5 mm 7 mps 736 mmHg 85%
    10:00 +18°C° 0.5 mm 7 mps 736 mmHg 80%
    11:00 +18°C° 0.5 mm 7 mps 736 mmHg 74%
    12:00 +18°C° 0.1 mm 7 mps 736 mmHg 68%
    13:00 +17°C° 0.1 mm 7 mps 737 mmHg 62%
    14:00 +17°C° 0.1 mm 7 mps 737 mmHg 56%
    15:00 +17°C° 0 mm 6 mps 738 mmHg 57%
    16:00 +17°C° 0 mm 5 mps 739 mmHg 58%
    17:00 +18°C° 0 mm 4 mps 739 mmHg 59%
    18:00 +15°C° 0 mm 4 mps 740 mmHg 66%
    19:00 +14°C° 0 mm 4 mps 740 mmHg 73%
    20:00 +12°C° 0 mm 3 mps 740 mmHg 79%
    21:00 +12°C° 0 mm 4 mps 740 mmHg 82%
    22:00 +12°C° 0 mm 4 mps 741 mmHg 84%
    23:00 +11°C° 0 mm 4 mps 741 mmHg 86%

    22 August, Wednesday

    Time Temperature Precipitation Wind Pressure Humidity
    00:00 +11°C° 0.3 mm 4 mps 741 mmHg 86%
    01:00 +11°C° 0.3 mm 4 mps 742 mmHg 87%
    02:00 +10°C° 0.3 mm 4 mps 742 mmHg 87%
    03:00 +10°C° 0 mm 4 mps 743 mmHg 88%
    04:00 +8°C° 0 mm 4 mps 743 mmHg 89%
    05:00 +8°C° 0 mm 4 mps 744 mmHg 89%
    06:00 +9°C° 0 mm 5 mps 744 mmHg 82%
    07:00 +10°C° 0 mm 5 mps 745 mmHg 75%
    08:00 +11°C° 0 mm 6 mps 745 mmHg 68%
    09:00 +13°C° 0 mm 6 mps 746 mmHg 63%
    10:00 +14°C° 0 mm 6 mps 746 mmHg 57%
    11:00 +15°C° 0 mm 6 mps 746 mmHg 52%
    12:00 +16°C° 0 mm 6 mps 747 mmHg 49%
    13:00 +16°C° 0 mm 6 mps 747 mmHg 47%
    14:00 +17°C° 0 mm 6 mps 748 mmHg 45%
    15:00 +17°C° 0 mm 5 mps 748 mmHg 47%
    16:00 +16°C° 0 mm 5 mps 748 mmHg 50%
    17:00 +17°C° 0 mm 4 mps 749 mmHg 53%
    18:00 +14°C° 0 mm 4 mps 749 mmHg 58%
    19:00 +12°C° 0 mm 3 mps 750 mmHg 64%
    20:00 +11°C° 0 mm 3 mps 750 mmHg 69%
    21:00 +10°C° 0 mm 2 mps 750 mmHg 72%
    22:00 +9°C° 0 mm 2 mps 751 mmHg 75%
    23:00 +8°C° 0 mm 2 mps 751 mmHg 79%

    23 August, Thursday

    Time Temperature Precipitation Wind Pressure Humidity
    00:00 +8°C° 0 mm 2 mps 751 mmHg 80%
    01:00 +8°C° 0 mm 2 mps 751 mmHg 81%
    02:00 +7°C° 0 mm 2 mps 752 mmHg 82%
    03:00 +8°C° 0 mm 2 mps 752 mmHg 81%
    04:00 +8°C° 0 mm 2 mps 752 mmHg 81%
    05:00 +8°C° 0 mm 3 mps 752 mmHg 80%
    06:00 +10°C° 0 mm 3 mps 752 mmHg 74%
    07:00 +12°C° 0 mm 4 mps 752 mmHg 68%
    08:00 +14°C° 0 mm 4 mps 752 mmHg 61%
    09:00 +16°C° 0 mm 5 mps 751 mmHg 58%
    10:00 +17°C° 0 mm 5 mps 751 mmHg 54%
    11:00 +20°C° 0 mm 5 mps 751 mmHg 51%
    12:00 +20°C° 0 mm 5 mps 751 mmHg 50%
    13:00 +21°C° 0 mm 5 mps 751 mmHg 49%
    14:00 +21°C° 0 mm 5 mps 750 mmHg 48%
    15:00 +21°C° 0 mm 5 mps 750 mmHg 51%
    16:00 +20°C° 0 mm 4 mps 750 mmHg 54%
    17:00 +20°C° 0 mm 4 mps 750 mmHg 57%
    18:00 +18°C° 0 mm 4 mps 750 mmHg 61%
    19:00 +17°C° 0 mm 4 mps 750 mmHg 66%
    20:00 +14°C° 0 mm 3 mps 750 mmHg 70%
    21:00 +14°C° 0 mm 3 mps 750 mmHg 73%
    22:00 +13°C° 0 mm 3 mps 750 mmHg 76%
    23:00 +12°C° 0 mm 3 mps 750 mmHg 78%

    24 August, Friday

    Time Temperature Precipitation Wind Pressure Humidity
    00:00 +12°C° 0 mm 3 mps 750 mmHg 80%
    01:00 +11°C° 0 mm 3 mps 751 mmHg 83%
    02:00 +11°C° 0 mm 3 mps 751 mmHg 85%
    03:00 +11°C° 0 mm 3 mps 751 mmHg 86%
    04:00 +10°C° 0 mm 3 mps 751 mmHg 88%
    05:00 +10°C° 0 mm 3 mps 751 mmHg 89%
    06:00 +12°C° 0 mm 3 mps 751 mmHg 83%
    07:00 +14°C° 0 mm 3 mps 751 mmHg 77%
    08:00 +17°C° 0 mm 3 mps 751 mmHg 71%
    09:00 +18°C° 0 mm 3 mps 751 mmHg 65%
    10:00 +20°C° 0 mm 3 mps 751 mmHg 60%
    11:00 +22°C° 0 mm 4 mps 751 mmHg 54%
    12:00 +23°C° 0 mm 4 mps 751 mmHg 53%
    13:00 +24°C° 0 mm 3 mps 751 mmHg 51%
    14:00 +25°C° 0 mm 3 mps 751 mmHg 50%
    15:00 +24°C° 0 mm 3 mps 751 mmHg 54%
    16:00 +24°C° 0 mm 3 mps 750 mmHg 58%
    17:00 +23°C° 0 mm 2 mps 750 mmHg 62%
    18:00 +20°C° 0 mm 2 mps 750 mmHg 69%
    19:00 +18°C° 0 mm 2 mps 750 mmHg 76%
    20:00 +16°C° 0 mm 2 mps 750 mmHg 83%
    21:00 +15°C° 0 mm 2 mps 750 mmHg 84%
    22:00 +15°C° 0 mm 2 mps 751 mmHg 86%
    23:00 +14°C° 0 mm 2 mps 751 mmHg 87%
    Show more